CHINASAT 9C

Last updated on Sun Apr 12 2026 00:02:57 GMT+0000 (Coordinated Universal Time)

1 64470U 25132A 26101.75287661 -.00000246 00000+0 00000+0 0 9997 2 64470 0.0279 251.1210 0002787 129.2400 182.8429 1.00273975 3488
UTC large
Height (km)
Speed (km/s)
/
Latitude / Longitude
Inclination (degrees)
Orbital Period (minutes)
Azimuth
Elevation
Range (km)
Doppler Factor

Next 0 passes for location: London (51.5072 / 0.1276)

Sorry there are no passes over London.
CHINASAT 9C